| time (UTC) | temp F | wind direction | speed knots | gust knots | rain 1hr in | rain 24hr in | rain mn in | humidity % | barometer mb |
| 20260831014503 | 55 | 221 | 3.5 | 5.2 | 0.00 | 0.50 | 0.21 | 93 | 1004.3 |
| 20260831014003 | 55 | 224 | 3.5 | 5.2 | 0.00 | 0.50 | 0.21 | 93 | 1004.2 |
| 20260831013503 | 55 | 235 | 2.6 | 4.3 | 0.00 | 0.50 | 0.21 | 92 | 1004.2 |
| 20260831013004 | 55 | 243 | 3.5 | 5.2 | 0.00 | 0.50 | 0.21 | 93 | 1004.2 |
| 20260831012503 | 55 | 243 | 3.5 | 6.1 | 0.00 | 0.50 | 0.21 | 92 | 1004.2 |
| 20260831011004 | 55 | 266 | 2.6 | 5.2 | 0.00 | 0.50 | 0.21 | 92 | 1004.2 |
| 20260831010504 | 55 | 275 | 2.6 | 5.2 | 0.00 | 0.50 | 0.21 | 92 | 1004.2 |
| 20260831010004 | 55 | 259 | 1.7 | 2.6 | 0.01 | 0.50 | 0.21 | 92 | 1004.1 |
| 20260831005504 | 55 | 261 | 2.6 | 5.2 | 0.02 | 0.50 | 0.21 | 92 | 1004.1 |
| 20260831004503 | 55 | 273 | 1.7 | 2.6 | 0.02 | 0.50 | 0.21 | 91 | 1003.9 |
| 20260831004004 | 55 | 272 | 1.7 | 2.6 | 0.02 | 0.50 | 0.21 | 92 | 1003.8 |
| 20260831003503 | 56 | 272 | 1.7 | 2.6 | 0.02 | 0.50 | 0.21 | 92 | 1003.8 |
| 20260831003004 | 56 | 271 | 1.7 | 2.6 | 0.03 | 0.50 | 0.21 | 92 | 1003.7 |
| 20260831002503 | 56 | 271 | 1.7 | 2.6 | 0.06 | 0.50 | 0.21 | 92 | 1003.7 |
| 20260831002003 | 56 | 279 | 1.7 | 5.2 | 0.06 | 0.50 | 0.21 | 92 | 1003.7 |
| 20260831001503 | 56 | 266 | 2.6 | 2.6 | 0.06 | 0.50 | 0.21 | 91 | 1003.6 |
| 20260831001004 | 56 | 248 | 1.7 | 2.6 | 0.07 | 0.50 | 0.21 | 91 | 1003.6 |
| 20260831000503 | 56 | 246 | 1.7 | 4.3 | 0.11 | 0.50 | 0.21 | 91 | 1003.5 |
| 20260831000004 | 56 | 244 | 1.7 | 6.1 | 0.20 | 0.50 | 0.20 | 91 | 1003.5 |
| 20260830235504 | 56 | 214 | 1.7 | 6.1 | 0.21 | 0.49 | 0.20 | 91 | 1003.7 |
| 20260830235003 | 56 | 188 | 4.3 | 7.0 | 0.21 | 0.49 | 0.20 | 91 | 1003.7 |
| 20260830234503 | 56 | 201 | 4.3 | 10.4 | 0.21 | 0.49 | 0.20 | 91 | 1003.7 |
| 20260830234003 | 56 | 213 | 6.1 | 7.8 | 0.20 | 0.48 | 0.19 | 91 | 1003.8 |
| 20260830233003 | 56 | 199 | 3.5 | 8.7 | 0.20 | 0.47 | 0.18 | 90 | 1003.6 |
| 20260830232503 | 56 | 264 | 3.5 | 7.0 | 0.17 | 0.44 | 0.15 | 89 | 1003.3 |
| 20260830232003 | 56 | 225 | 1.7 | 4.3 | 0.17 | 0.44 | 0.15 | 89 | 1003.2 |
| 20260830231504 | 56 | 210 | 2.6 | 6.1 | 0.17 | 0.44 | 0.15 | 89 | 1003.2 |
| 20260830231004 | 56 | 172 | 2.6 | 5.2 | 0.17 | 0.43 | 0.14 | 88 | 1003.2 |
| 20260830230504 | 57 | 201 | 2.6 | 6.1 | 0.13 | 0.39 | 0.10 | 87 | 1003.3 |
| 20260830230004 | 57 | 203 | 2.6 | 8.7 | 0.02 | 0.29 | 0.00 | 86 | 1003.6 |
| 20260830225504 | 57 | 253 | 3.5 | 6.1 | 0.01 | 0.28 | 0.28 | 86 | 1003.5 |
| 20260830225003 | 58 | 276 | 3.5 | 6.1 | 0.01 | 0.28 | 0.28 | 86 | 1003.4 |
| 20260830224503 | 58 | 290 | 2.6 | 8.7 | 0.01 | 0.28 | 0.28 | 86 | 1003.2 |
| 20260830224004 | 59 | 295 | 7.0 | 10.4 | 0.01 | 0.28 | 0.28 | 89 | 1003.1 |
| 20260830223504 | 59 | 229 | 6.1 | 11.3 | 0.01 | 0.28 | 0.28 | 89 | 1002.8 |
| 20260830223004 | 59 | 215 | 4.3 | 10.4 | 0.01 | 0.28 | 0.28 | 89 | 1002.8 |
| 20260830222504 | 59 | 217 | 4.3 | 6.1 | 0.01 | 0.28 | 0.28 | 90 | 1002.8 |
| 20260830222004 | 59 | 210 | 4.3 | 6.1 | 0.01 | 0.28 | 0.28 | 89 | 1002.8 |
| 20260830221504 | 59 | 217 | 5.2 | 10.4 | 0.01 | 0.28 | 0.28 | 89 | 1002.8 |
| 20260830220504 | 59 | 209 | 4.3 | 8.7 | 0.01 | 0.27 | 0.27 | 90 | 1002.8 |
| 20260830220004 | 59 | 221 | 5.2 | 10.4 | 0.01 | 0.27 | 0.27 | 90 | 1002.9 |
| 20260830215504 | 59 | 223 | 4.3 | 10.4 | 0.01 | 0.27 | 0.27 | 90 | 1002.9 |
| 20260830215003 | 59 | 208 | 4.3 | 11.3 | 0.01 | 0.27 | 0.27 | 90 | 1002.9 |
| 20260830214503 | 60 | 211 | 5.2 | 8.7 | 0.01 | 0.27 | 0.27 | 90 | 1002.9 |
| 20260830214003 | 60 | 200 | 4.3 | 7.0 | 0.02 | 0.27 | 0.27 | 91 | 1002.9 |
| 20260830213503 | 60 | 177 | 4.3 | 7.0 | 0.02 | 0.27 | 0.27 | 90 | 1002.9 |
| 20260830213004 | 60 | 200 | 2.6 | 7.0 | 0.02 | 0.27 | 0.27 | 91 | 1002.8 |
| 20260830212503 | 60 | 150 | 4.3 | 8.7 | 0.02 | 0.27 | 0.27 | 91 | 1002.8 |
| 20260830212004 | 60 | 212 | 2.6 | 7.8 | 0.02 | 0.27 | 0.27 | 91 | 1002.8 |
| 20260830211504 | 60 | 169 | 4.3 | 8.7 | 0.04 | 0.27 | 0.27 | 91 | 1002.8 |
| 20260830211004 | 60 | 184 | 2.6 | 7.0 | 0.04 | 0.27 | 0.27 | 91 | 1002.8 |
| 20260830210503 | 60 | 182 | 5.2 | 10.4 | 0.03 | 0.26 | 0.26 | 91 | 1002.8 |
| 20260830210004 | 60 | 184 | 4.3 | 7.0 | 0.03 | 0.26 | 0.26 | 91 | 1002.8 |
| 20260830205504 | 60 | 167 | 2.6 | 6.1 | 0.03 | 0.26 | 0.26 | 91 | 1002.8 |
| 20260830204004 | 59 | 202 | 2.6 | 4.3 | 0.02 | 0.25 | 0.25 | 91 | 1002.9 |
| 20260830203503 | 59 | 165 | 1.7 | 6.1 | 0.02 | 0.25 | 0.25 | 91 | 1003.0 |
| 20260830203004 | 59 | 165 | 3.5 | 7.8 | 0.02 | 0.25 | 0.25 | 91 | 1003.2 |
| 20260830201503 | 59 | 151 | 0.0 | 4.3 | 0.00 | 0.23 | 0.23 | 90 | 1003.5 |
| 20260830201003 | 59 | 136 | 0.0 | 2.6 | 0.00 | 0.23 | 0.23 | 90 | 1003.5 |
| 20260830200004 | 59 | 217 | 0.0 | 1.7 | 0.00 | 0.23 | 0.23 | 90 | 1003.5 |
| 20260830195503 | 59 | 217 | 0.9 | 2.6 | 0.00 | 0.23 | 0.23 | 90 | 1003.5 |
| 20260830195004 | 59 | 216 | 0.0 | 2.6 | 0.00 | 0.23 | 0.23 | 89 | 1003.5 |
| 20260830194503 | 59 | 215 | 0.0 | 0.0 | 0.00 | 0.23 | 0.23 | 89 | 1003.5 |
| 20260830194004 | 59 | 215 | 0.0 | 0.0 | 0.00 | 0.23 | 0.23 | 89 | 1003.5 |
| 20260830193004 | 59 | 217 | 0.0 | 1.7 | 0.00 | 0.23 | 0.23 | 89 | 1003.5 |
| 20260830192503 | 60 | 218 | 0.0 | 2.6 | 0.00 | 0.23 | 0.23 | 89 | 1003.3 |
| 20260830192003 | 60 | 218 | 2.6 | 5.2 | 0.00 | 0.23 | 0.23 | 89 | 1003.2 |
| 20260830191504 | 60 | 236 | 1.7 | 6.1 | 0.00 | 0.23 | 0.23 | 89 | 1003.1 |
| 20260830191004 | 60 | 218 | 2.6 | 6.1 | 0.00 | 0.23 | 0.23 | 89 | 1003.1 |
| 20260830190003 | 60 | 206 | 5.2 | 8.7 | 0.01 | 0.24 | 0.23 | 90 | 1003.2 |
| 20260830185503 | 60 | 225 | 4.3 | 8.7 | 0.02 | 0.24 | 0.23 | 90 | 1003.3 |
| 20260830185004 | 60 | 219 | 2.6 | 8.7 | 0.03 | 0.24 | 0.23 | 90 | 1003.2 |
| 20260830184503 | 60 | 202 | 5.2 | 10.4 | 0.05 | 0.24 | 0.23 | 90 | 1003.2 |
| 20260830184004 | 60 | 200 | 5.2 | 10.4 | 0.06 | 0.24 | 0.23 | 90 | 1003.1 |
| 20260830183503 | 60 | 223 | 5.2 | 10.4 | 0.09 | 0.24 | 0.23 | 90 | 1003.2 |
| 20260830183004 | 60 | 202 | 6.1 | 10.4 | 0.16 | 0.24 | 0.23 | 89 | 1003.2 |
| 20260830182503 | 60 | 172 | 5.2 | 13.0 | 0.17 | 0.24 | 0.23 | 89 | 1003.2 |
| 20260830182003 | 60 | 204 | 5.2 | 10.4 | 0.17 | 0.24 | 0.23 | 89 | 1003.3 |
| 20260830181503 | 61 | 192 | 5.2 | 10.4 | 0.17 | 0.24 | 0.23 | 89 | 1003.3 |
| 20260830181004 | 61 | 210 | 5.2 | 10.4 | 0.17 | 0.24 | 0.23 | 89 | 1003.4 |
| 20260830180504 | 61 | 184 | 4.3 | 8.7 | 0.18 | 0.24 | 0.23 | 89 | 1003.5 |
| 20260830175003 | 62 | 178 | 6.1 | 14.8 | 0.15 | 0.20 | 0.20 | 88 | 1003.6 |
| 20260830174504 | 62 | 152 | 8.7 | 17.4 | 0.13 | 0.19 | 0.18 | 88 | 1003.7 |
| 20260830174003 | 63 | 148 | 5.2 | 13.0 | 0.12 | 0.17 | 0.17 | 87 | 1003.8 |
| 20260830173504 | 63 | 172 | 7.8 | 13.0 | 0.09 | 0.14 | 0.13 | 86 | 1003.8 |
| 20260830173003 | 63 | 178 | 5.2 | 11.3 | 0.02 | 0.08 | 0.07 | 85 | 1003.8 |
| 20260830172504 | 63 | 189 | 4.3 | 10.4 | 0.01 | 0.06 | 0.06 | 85 | 1003.9 |
| 20260830171503 | 64 | 183 | 5.2 | 7.8 | 0.01 | 0.06 | 0.06 | 83 | 1003.8 |
| 20260830171003 | 64 | 186 | 6.1 | 17.4 | 0.01 | 0.06 | 0.06 | 82 | 1003.8 |
| 20260830165504 | 64 | 178 | 4.3 | 10.4 | 0.00 | 0.06 | 0.05 | 81 | 1004.1 |
| 20260830165004 | 64 | 208 | 4.3 | 11.3 | 0.00 | 0.06 | 0.05 | 80 | 1004.2 |
| 20260830164004 | 65 | 223 | 5.2 | 8.7 | 0.00 | 0.06 | 0.05 | 78 | 1004.1 |
| 20260830163503 | 65 | 209 | 5.2 | 10.4 | 0.00 | 0.06 | 0.05 | 78 | 1004.3 |
| 20260830163004 | 65 | 191 | 7.8 | 13.9 | 0.00 | 0.06 | 0.05 | 77 | 1004.2 |
| 20260830162504 | 65 | 213 | 7.8 | 13.0 | 0.00 | 0.06 | 0.05 | 77 | 1004.2 |
| 20260830162003 | 65 | 190 | 6.1 | 15.6 | 0.00 | 0.06 | 0.05 | 77 | 1004.2 |
| 20260830161004 | 65 | 198 | 6.1 | 11.3 | 0.00 | 0.06 | 0.05 | 79 | 1004.3 |
| 20260830160503 | 65 | 211 | 6.1 | 11.3 | 0.00 | 0.06 | 0.05 | 79 | 1004.3 |
| 20260830155504 | 64 | 218 | 6.1 | 10.4 | 0.00 | 0.06 | 0.05 | 82 | 1004.5 |
| 20260830155004 | 64 | 201 | 3.5 | 10.4 | 0.00 | 0.06 | 0.05 | 83 | 1004.4 |
| 20260830154004 | 64 | 222 | 2.6 | 5.2 | 0.00 | 0.06 | 0.05 | 84 | 1004.5 |
| 20260830153004 | 63 | 203 | 3.5 | 5.2 | 0.00 | 0.06 | 0.05 | 85 | 1004.6 |
| 20260830152503 | 63 | 206 | 4.3 | 8.7 | 0.00 | 0.06 | 0.05 | 85 | 1004.7 |
| 20260830152003 | 63 | 251 | 4.3 | 7.0 | 0.00 | 0.06 | 0.05 | 85 | 1004.8 |
| 20260830151504 | 64 | 255 | 5.2 | 7.8 | 0.00 | 0.06 | 0.05 | 85 | 1004.7 |
| 20260830151003 | 64 | 255 | 6.1 | 8.7 | 0.00 | 0.06 | 0.05 | 84 | 1004.8 |
| 20260830150504 | 64 | 242 | 6.1 | 10.4 | 0.00 | 0.06 | 0.05 | 84 | 1004.9 |
| 20260830150004 | 64 | 282 | 7.0 | 11.3 | 0.00 | 0.06 | 0.05 | 83 | 1004.9 |
| 20260830145503 | 64 | 264 | 6.1 | 10.4 | 0.00 | 0.06 | 0.05 | 82 | 1005.1 |
| 20260830144503 | 65 | 255 | 5.2 | 11.3 | 0.00 | 0.06 | 0.05 | 80 | 1005.0 |
| 20260830144004 | 65 | 215 | 7.0 | 14.8 | 0.00 | 0.06 | 0.05 | 78 | 1005.0 |
| 20260830143503 | 65 | 207 | 8.7 | 14.8 | 0.04 | 0.06 | 0.05 | 79 | 1005.1 |
| 20260830143004 | 65 | 204 | 6.1 | 12.2 | 0.04 | 0.06 | 0.05 | 79 | 1005.0 |
| 20260830142504 | 65 | 195 | 6.1 | 17.4 | 0.04 | 0.06 | 0.05 | 79 | 1005.1 |
| 20260830142003 | 66 | 206 | 7.8 | 13.0 | 0.04 | 0.06 | 0.05 | 79 | 1005.1 |
| 20260830141503 | 66 | 196 | 7.8 | 15.6 | 0.04 | 0.06 | 0.05 | 79 | 1005.0 |
| 20260830141003 | 66 | 183 | 5.2 | 14.8 | 0.04 | 0.06 | 0.05 | 80 | 1004.9 |
| 20260830140504 | 67 | 167 | 3.5 | 6.1 | 0.04 | 0.06 | 0.05 | 82 | 1004.9 |
| 20260830140003 | 67 | 200 | 1.7 | 5.2 | 0.04 | 0.06 | 0.05 | 82 | 1005.0 |
| 20260830135504 | 67 | 193 | 0.9 | 2.6 | 0.04 | 0.06 | 0.05 | 82 | 1005.1 |
| 20260830134003 | 69 | 192 | 4.3 | 12.2 | 0.04 | 0.06 | 0.05 | 74 | 1005.3 |
| 20260830133504 | 69 | 177 | 6.1 | 13.9 | 0.00 | 0.02 | 0.01 | 69 | 1005.4 |
| 20260830133004 | 70 | 185 | 6.1 | 12.2 | 0.00 | 0.02 | 0.01 | 67 | 1005.3 |
| 20260830132503 | 70 | 166 | 6.1 | 18.2 | 0.00 | 0.02 | 0.01 | 67 | 1005.4 |
| 20260830132003 | 71 | 188 | 5.2 | 10.4 | 0.00 | 0.02 | 0.01 | 67 | 1005.5 |
| 20260830131503 | 71 | 223 | 4.3 | 7.8 | 0.00 | 0.02 | 0.01 | 67 | 1005.4 |
| 20260830131003 | 71 | 175 | 5.2 | 10.4 | 0.00 | 0.02 | 0.01 | 67 | 1005.4 |
| 20260830130504 | 70 | 169 | 3.5 | 8.7 | 0.00 | 0.02 | 0.01 | 69 | 1005.5 |
| 20260830130003 | 70 | 216 | 5.2 | 7.8 | 0.00 | 0.02 | 0.01 | 68 | 1005.5 |
| 20260830125503 | 70 | 189 | 6.1 | 11.3 | 0.00 | 0.02 | 0.01 | 68 | 1005.7 |
| 20260830125003 | 70 | 151 | 6.1 | 13.9 | 0.00 | 0.02 | 0.01 | 70 | 1005.8 |
| 20260830124503 | 70 | 147 | 6.1 | 13.9 | 0.00 | 0.02 | 0.01 | 70 | 1005.9 |
| 20260830124004 | 69 | 198 | 5.2 | 13.9 | 0.00 | 0.02 | 0.01 | 70 | 1006.0 |
| 20260830123503 | 69 | 202 | 5.2 | 11.3 | 0.00 | 0.02 | 0.01 | 70 | 1006.0 |
| 20260830123004 | 69 | 120 | 4.3 | 12.2 | 0.00 | 0.02 | 0.01 | 72 | 1006.1 |
| 20260830122503 | 68 | 143 | 7.0 | 11.3 | 0.00 | 0.02 | 0.01 | 72 | 1006.0 |
| 20260830121503 | 68 | 185 | 4.3 | 10.4 | 0.00 | 0.02 | 0.01 | 74 | 1006.1 |
| 20260830121004 | 68 | 181 | 7.0 | 11.3 | 0.00 | 0.02 | 0.01 | 74 | 1006.2 |
| 20260830120503 | 68 | 135 | 6.1 | 10.4 | 0.00 | 0.02 | 0.01 | 74 | 1006.2 |
| 20260830120003 | 68 | 156 | 5.2 | 10.4 | 0.00 | 0.02 | 0.01 | 76 | 1006.2 |
| 20260830115503 | 68 | 156 | 6.1 | 14.8 | 0.00 | 0.02 | 0.01 | 76 | 1006.3 |
| 20260830114503 | 67 | 176 | 5.2 | 11.3 | 0.00 | 0.02 | 0.01 | 76 | 1006.4 |
| 20260830114004 | 67 | 197 | 2.6 | 10.4 | 0.00 | 0.02 | 0.01 | 76 | 1006.4 |
| 20260830113503 | 67 | 176 | 7.0 | 10.4 | 0.00 | 0.02 | 0.01 | 75 | 1006.4 |
| 20260830113003 | 67 | 169 | 3.5 | 10.4 | 0.00 | 0.03 | 0.01 | 75 | 1006.5 |
| 20260830112504 | 67 | 189 | 5.2 | 13.0 | 0.00 | 0.03 | 0.01 | 75 | 1006.6 |
| 20260830111003 | 67 | 226 | 3.5 | 10.4 | 0.00 | 0.07 | 0.01 | 73 | 1006.6 |
| 20260830110503 | 68 | 240 | 6.1 | 10.4 | 0.00 | 0.09 | 0.01 | 73 | 1006.7 |
| 20260830110005 | 68 | 210 | 7.0 | 10.4 | 0.00 | 0.10 | 0.01 | 72 | 1006.7 |
| 20260830105003 | 69 | 168 | 5.2 | 10.4 | 0.00 | 0.11 | 0.01 | 71 | 1006.8 |
| 20260830104504 | 69 | 200 | 6.1 | 12.2 | 0.00 | 0.11 | 0.01 | 72 | 1006.8 |
| 20260830104003 | 69 | 168 | 7.8 | 14.8 | 0.00 | 0.11 | 0.01 | 70 | 1006.9 |
| 20260830103503 | 69 | 178 | 5.2 | 13.9 | 0.00 | 0.11 | 0.01 | 71 | 1007.0 |
| 20260830103004 | 69 | 172 | 6.1 | 18.2 | 0.00 | 0.11 | 0.01 | 71 | 1007.0 |
| 20260830102003 | 68 | 204 | 6.1 | 13.9 | 0.00 | 0.11 | 0.01 | 74 | 1007.2 |
| 20260830101503 | 67 | 144 | 5.2 | 13.0 | 0.00 | 0.11 | 0.01 | 76 | 1007.2 |
| 20260830101003 | 67 | 226 | 4.3 | 7.8 | 0.00 | 0.11 | 0.01 | 77 | 1007.3 |
| 20260830100004 | 66 | 204 | 5.2 | 12.2 | 0.00 | 0.11 | 0.01 | 76 | 1007.3 |
| 20260830095503 | 66 | 193 | 7.0 | 10.4 | 0.00 | 0.11 | 0.01 | 77 | 1007.5 |
| 20260830095003 | 66 | 199 | 6.1 | 11.3 | 0.00 | 0.11 | 0.01 | 77 | 1007.5 |
| 20260830094004 | 66 | 186 | 6.1 | 10.4 | 0.00 | 0.11 | 0.01 | 77 | 1007.5 |
| 20260830093504 | 66 | 189 | 5.2 | 11.3 | 0.00 | 0.11 | 0.01 | 78 | 1007.4 |
| 20260830093003 | 66 | 227 | 6.1 | 11.3 | 0.00 | 0.11 | 0.01 | 78 | 1007.5 |
| 20260830092503 | 66 | 213 | 3.5 | 8.7 | 0.00 | 0.11 | 0.01 | 78 | 1007.5 |
| 20260830092004 | 66 | 224 | 7.8 | 12.2 | 0.00 | 0.11 | 0.01 | 77 | 1007.5 |
| 20260830091504 | 66 | 210 | 7.8 | 13.0 | 0.00 | 0.11 | 0.01 | 77 | 1007.5 |
| 20260830091003 | 66 | 224 | 7.8 | 12.2 | 0.00 | 0.11 | 0.01 | 77 | 1007.5 |
| 20260830090504 | 66 | 196 | 7.0 | 10.4 | 0.00 | 0.11 | 0.01 | 77 | 1007.5 |
| 20260830090004 | 67 | 217 | 5.2 | 10.4 | 0.00 | 0.12 | 0.01 | 79 | 1007.5 |
| 20260830085504 | 67 | 233 | 2.6 | 10.4 | 0.00 | 0.12 | 0.01 | 80 | 1007.6 |
| 20260830085004 | 66 | 218 | 4.3 | 10.4 | 0.00 | 0.12 | 0.01 | 82 | 1007.6 |
| 20260830084504 | 66 | 226 | 4.3 | 10.4 | 0.00 | 0.12 | 0.01 | 83 | 1007.7 |
| 20260830084003 | 65 | 201 | 3.5 | 8.7 | 0.00 | 0.12 | 0.01 | 83 | 1007.7 |
| 20260830083503 | 65 | 188 | 2.6 | 5.2 | 0.00 | 0.12 | 0.01 | 83 | 1007.7 |
| 20260830083003 | 65 | 192 | 4.3 | 10.4 | 0.00 | 0.12 | 0.01 | 82 | 1007.7 |
| 20260830082503 | 65 | 167 | 3.5 | 7.0 | 0.00 | 0.12 | 0.01 | 83 | 1007.7 |
| 20260830081504 | 65 | 200 | 6.1 | 10.4 | 0.00 | 0.12 | 0.01 | 82 | 1007.6 |
| 20260830081004 | 66 | 209 | 4.3 | 7.0 | 0.00 | 0.12 | 0.01 | 83 | 1007.6 |
| 20260830075503 | 65 | 186 | 4.3 | 7.8 | 0.00 | 0.14 | 0.01 | 86 | 1007.6 |
| 20260830075004 | 64 | 160 | 2.6 | 6.1 | 0.00 | 0.16 | 0.01 | 88 | 1007.5 |
| 20260830074003 | 62 | 176 | 2.6 | 7.0 | 0.00 | 0.19 | 0.01 | 90 | 1007.5 |
| 20260830073504 | 62 | 176 | 0.9 | 6.1 | 0.00 | 0.22 | 0.01 | 89 | 1007.6 |
| 20260830073004 | 62 | 184 | 2.6 | 10.4 | 0.00 | 0.24 | 0.01 | 90 | 1007.6 |
| 20260830072504 | 62 | 198 | 2.6 | 7.0 | 0.00 | 0.28 | 0.01 | 90 | 1007.6 |
| 20260830072004 | 61 | 181 | 1.7 | 10.4 | 0.00 | 0.30 | 0.01 | 90 | 1007.6 |
| 20260830071504 | 61 | 168 | 3.5 | 7.0 | 0.00 | 0.34 | 0.01 | 91 | 1007.6 |
| 20260830071004 | 61 | 169 | 2.6 | 7.0 | 0.00 | 0.35 | 0.01 | 91 | 1007.7 |
| 20260830070004 | 61 | 169 | 4.3 | 6.1 | 0.00 | 0.39 | 0.01 | 93 | 1007.7 |
| 20260830064503 | 60 | 176 | 2.6 | 6.1 | 0.00 | 0.45 | 0.01 | 93 | 1007.6 |
| 20260830064004 | 60 | 182 | 0.0 | 0.9 | 0.00 | 0.47 | 0.01 | 93 | 1007.6 |
| 20260830063503 | 60 | 188 | 0.0 | 2.6 | 0.00 | 0.49 | 0.01 | 93 | 1007.6 |
| 20260830063006 | 59 | 162 | 1.7 | 4.3 | 0.00 | 0.50 | 0.01 | 94 | 1007.6 |
| 20260830062503 | 59 | 96 | 0.0 | 0.0 | 0.00 | 0.52 | 0.01 | 94 | 1007.5 |
| 20260830062004 | 59 | 5 | 0.0 | 0.0 | 0.00 | 0.53 | 0.01 | 94 | 1007.5 |
| 20260830061504 | 58 | 9 | 0.0 | 0.0 | 0.00 | 0.53 | 0.01 | 93 | 1007.5 |
| 20260830061005 | 58 | 9 | 0.0 | 0.9 | 0.00 | 0.54 | 0.01 | 93 | 1007.4 |
| 20260830060504 | 58 | 8 | 0.0 | 0.9 | 0.00 | 0.54 | 0.01 | 93 | 1007.4 |
| 20260830060003 | 58 | 328 | 0.0 | 1.7 | 0.00 | 0.54 | 0.01 | 92 | 1007.4 |
| 20260830055503 | 58 | 278 | 0.0 | 0.0 | 0.00 | 0.54 | 0.01 | 92 | 1007.4 |
| 20260830055003 | 58 | 278 | 0.0 | 0.0 | 0.00 | 0.55 | 0.01 | 92 | 1007.4 |
| 20260830054503 | 58 | 278 | 0.0 | 0.0 | 0.00 | 0.55 | 0.01 | 92 | 1007.4 |
| 20260830054004 | 58 | 278 | 0.0 | 0.0 | 0.00 | 0.56 | 0.01 | 92 | 1007.4 |
| 20260830053504 | 58 | 278 | 0.0 | 0.9 | 0.00 | 0.56 | 0.01 | 92 | 1007.4 |
| 20260830052003 | 59 | 227 | 0.0 | 0.0 | 0.00 | 0.57 | 0.01 | 92 | 1007.4 |
| 20260830051503 | 59 | 227 | 0.0 | 0.0 | 0.00 | 0.57 | 0.01 | 92 | 1007.4 |
| 20260830050504 | 59 | 227 | 0.0 | 0.0 | 0.00 | 0.57 | 0.01 | 92 | 1007.4 |
| 20260830050003 | 59 | 227 | 0.0 | 1.7 | 0.00 | 0.57 | 0.01 | 92 | 1007.4 |
| 20260830045004 | 59 | 223 | 1.7 | 2.6 | 0.00 | 0.57 | 0.01 | 92 | 1007.4 |
| 20260830044504 | 59 | 230 | 0.9 | 2.6 | 0.00 | 0.57 | 0.01 | 92 | 1007.4 |
| 20260830044005 | 59 | 229 | 1.7 | 2.6 | 0.00 | 0.58 | 0.01 | 92 | 1007.4 |
| 20260830043504 | 59 | 228 | 1.7 | 4.3 | 0.00 | 0.58 | 0.01 | 92 | 1007.4 |
| 20260830043003 | 60 | 240 | 2.6 | 7.0 | 0.00 | 0.58 | 0.01 | 92 | 1007.3 |
| 20260830042503 | 60 | 204 | 2.6 | 5.2 | 0.00 | 0.58 | 0.01 | 92 | 1007.3 |
| 20260830042004 | 60 | 228 | 3.5 | 8.7 | 0.00 | 0.58 | 0.01 | 92 | 1007.3 |
| 20260830041004 | 60 | 238 | 4.3 | 7.0 | 0.00 | 0.58 | 0.01 | 92 | 1007.3 |
| 20260830040504 | 60 | 242 | 4.3 | 7.0 | 0.00 | 0.58 | 0.01 | 92 | 1007.3 |
| 20260830035503 | 60 | 261 | 4.3 | 10.4 | 0.00 | 0.58 | 0.01 | 92 | 1007.3 |
| 20260830035003 | 60 | 239 | 4.3 | 8.7 | 0.00 | 0.58 | 0.01 | 92 | 1007.3 |
| 20260830034503 | 60 | 230 | 3.5 | 6.1 | 0.00 | 0.58 | 0.01 | 92 | 1007.3 |
| 20260830034003 | 60 | 232 | 4.3 | 7.0 | 0.00 | 0.58 | 0.01 | 92 | 1007.4 |
| 20260830033504 | 60 | 247 | 4.3 | 7.0 | 0.00 | 0.58 | 0.01 | 92 | 1007.4 |
| 20260830033003 | 60 | 226 | 2.6 | 6.1 | 0.01 | 0.58 | 0.01 | 92 | 1007.3 |
| 20260830032503 | 61 | 221 | 2.6 | 6.1 | 0.01 | 0.58 | 0.01 | 92 | 1007.3 |
| 20260830032003 | 60 | 250 | 4.3 | 8.7 | 0.01 | 0.58 | 0.01 | 92 | 1007.3 |
| 20260830031503 | 60 | 240 | 4.3 | 8.7 | 0.01 | 0.58 | 0.01 | 92 | 1007.3 |
| 20260830031003 | 60 | 250 | 3.5 | 6.1 | 0.01 | 0.58 | 0.01 | 92 | 1007.4 |
| 20260830030503 | 60 | 237 | 1.7 | 5.2 | 0.01 | 0.58 | 0.01 | 92 | 1007.3 |
| 20260830025503 | 60 | 217 | 1.7 | 2.6 | 0.01 | 0.58 | 0.01 | 92 | 1007.3 |
| 20260830025003 | 60 | 217 | 0.9 | 2.6 | 0.01 | 0.58 | 0.01 | 92 | 1007.3 |
| 20260830024503 | 60 | 217 | 1.7 | 2.6 | 0.01 | 0.58 | 0.01 | 92 | 1007.3 |
| 20260830024003 | 60 | 217 | 1.7 | 2.6 | 0.01 | 0.58 | 0.01 | 92 | 1007.3 |
| 20260830023503 | 60 | 216 | 0.9 | 2.6 | 0.01 | 0.58 | 0.01 | 91 | 1007.3 |
| 20260830021503 | 59 | 216 | 0.9 | 2.6 | 0.00 | 0.57 | 0.00 | 91 | 1007.2 |
| 20260830020504 | 59 | 216 | 1.7 | 2.6 | 0.00 | 0.57 | 0.00 | 90 | 1007.2 |
| 20260830020004 | 59 | 216 | 1.7 | 2.6 | 0.00 | 0.57 | 0.00 | 90 | 1007.2 |
| 20260830015003 | 60 | 216 | 1.7 | 2.6 | 0.00 | 0.57 | 0.00 | 89 | 1007.0 |